Location: Bauerbach
(50.4985°N, 10.3912°E)
Time: 19:36:42
(UTC+00:00)

Cosmos 1805 Rocket - Pass Details

Date: 13 January 2026
Orbit: 598 x 623 km, 82.5° (Epoch: 13 February)

Event Time Altitude Azimuth Distance (km) Brightness Sun altitude
Rises 05:34:25 0° 199° (SSW) 2,894 7.0 -15.3°
Reaches altitude 10° 05:36:40 10° 203° (SSW) 1,992 6.1 -14.9°
Maximum altitude 05:41:02 59° 283° (WNW) 722 3.6 -14.3°
Drops below altitude 10° 05:45:25 10° 4° (N) 2,001 6.0 -13.6°
Sets 05:47:41 0° 8° (N) 2,909 6.9 -13.2°
